EW7342 Weather Reports


time (UTC)temp
C
wind
direction
speed
KPH
gust
KPH
rain 1hr
cm
rain 24hr
cm
rain mn
cm
humidity
%
barometer
mb
20260906072018 22 0.0 0.0 0.00 0.00 0.00 97 1011.8
20260906071018 22 0.0 0.0 0.00 0.00 0.00 97 1011.8
20260906070018 22 0.0 0.0 0.00 0.00 0.00 97 1011.9
20260906065019 22 0.0 0.0 0.00 0.00 0.00 97 1011.9
20260906064019 22 0.0 0.0 0.00 0.00 0.00 96 1012.1
20260906063019 22 0.0 0.0 0.00 0.00 0.00 96 1012.1
20260906062019 22 0.0 0.0 0.00 0.00 0.00 97 1012.4
20260906061019 22 0.0 0.0 0.00 0.00 0.00 97 1012.5
20260906060040 22 0.0 0.0 0.00 0.00 0.00 96 1012.5
20260906055020 22 0.0 0.0 0.00 0.00 0.00 97 1012.5
20260906054020 22 0.0 0.0 0.00 0.00 0.00 96 1012.7
20260906053020 22 0.0 0.0 0.00 0.00 0.00 96 1012.8
20260906052020 22 0.0 0.0 0.00 0.00 0.00 96 1013.0
20260906051020 22 0.0 0.0 0.00 0.00 0.00 96 1013.0
20260906050041 22 0.0 0.0 0.00 0.00 0.00 96 1012.9
20260906045021 22 0.0 0.0 0.00 0.00 0.00 95 1013.0
20260906044021 22 0.0 0.0 0.00 0.00 0.00 95 1013.1
20260906043021 22 0.0 0.0 0.00 0.00 0.00 95 1013.2
20260906042021 22 0.0 0.0 0.00 0.00 0.00 94 1013.3
20260906041021 22 0.0 0.0 0.00 0.00 0.00 93 1013.3
20260906040021 23 0.0 0.0 0.00 0.00 0.00 93 1013.4
20260906035042 23 0.0 0.0 0.00 0.00 0.00 92 1013.5
20260906034022 23 0.0 0.0 0.00 0.00 0.00 92 1013.3
20260906033044 23 0.0 0.0 0.00 0.00 0.00 92 1013.3
20260906032022 23 0.0 0.0 0.00 0.00 0.00 92 1013.3
20260906031042 23 0.0 0.0 0.00 0.00 0.00 91 1013.3
20260906030023 23 0.0 0.0 0.00 0.00 0.00 91 1013.3
20260906025043 23 0.0 0.0 0.00 0.00 0.00 90 1013.1
20260906024023 23 0.0 0.0 0.00 0.00 0.00 90 1013.1
20260906023023 23 0.0 0.0 0.00 0.00 0.00 91 1013.0
20260906022023 23 0.0 0.0 0.00 0.00 0.00 90 1013.0
20260906021023 23 0.0 0.0 0.00 0.00 0.00 89 1012.9
20260906020023 23 0.0 0.0 0.00 0.00 0.00 88 1012.9
20260906015044 24 0.0 0.0 0.00 0.00 0.00 87 1013.0
20260906014024 24 0.0 0.0 0.00 0.00 0.00 86 1012.9
20260906013018 24 0.0 0.0 0.00 0.00 0.00 86 1012.9
20260906012018 24 0.0 0.0 0.00 0.00 0.00 86 1012.7
20260906011019 24 0.0 0.0 0.00 0.00 0.00 86 1012.6
20260906010018 25 0.0 0.0 0.00 0.00 0.00 84 1012.5
20260906005039 25 0.0 0.0 0.00 0.00 0.00 85 1012.5
20260906004016 25 0.0 0.0 0.00 0.00 0.00 83 1012.4
20260906003016 25 0.0 0.0 0.00 0.00 0.00 81 1012.5
20260906002019 25 0.0 0.0 0.00 0.00 0.00 81 1012.3
20260906001019 26 307 0.0 1.6 0.00 0.00 0.00 81 1012.3
20260906000037 26 0.0 0.0 0.00 0.00 0.00 78 1012.1
20260905235017 26 0.0 0.0 0.00 0.00 0.00 77 1012.0
20260905234017 27 0.0 0.0 0.00 0.00 0.00 76 1011.7
20260905233020 27 0.0 0.0 0.00 0.00 0.00 71 1011.5
20260905232017 27 0.0 0.0 0.00 0.00 0.00 70 1011.4
20260905231038 27 260 1.6 4.8 0.00 0.00 0.00 70 1011.5
20260905230018 27 264 0.0 3.2 0.00 0.00 0.00 71 1011.5
20260905225018 27 284 0.0 3.2 0.00 0.00 0.00 71 1011.5
20260905224038 27 0.0 0.0 0.00 0.00 0.00 70 1011.4
20260905223018 27 346 0.0 3.2 0.00 0.00 0.00 69 1011.3
20260905222018 27 300 0.0 4.8 0.00 0.00 0.00 70 1011.4
20260905221019 27 281 0.0 3.2 0.00 0.00 0.00 69 1011.5
20260905220019 26 352 1.6 4.8 0.00 0.00 0.00 69 1011.5
20260905215016 26 314 0.0 4.8 0.00 0.00 0.00 69 1011.6
20260905214019 26 321 0.0 3.2 0.00 0.00 0.00 71 1011.7
20260905213019 26 341 0.0 3.2 0.00 0.00 0.00 73 1012.0
20260905212019 25 0.0 0.0 0.00 0.00 0.00 75 1012.3
20260905211016 25 0.0 0.0 0.00 0.00 0.00 79 1012.5
20260905210017 25 0.0 0.0 0.00 0.00 0.00 80 1012.6
20260905205020 25 354 0.0 4.8 0.00 0.00 0.00 79 1012.4
20260905204017 26 306 0.0 3.2 0.00 0.00 0.00 79 1012.4
20260905203017 27 0.0 0.0 0.00 0.00 0.00 79 1012.2
20260905202037 27 282 0.0 4.8 0.00 0.00 0.00 74 1012.3
20260905201038 28 271 3.2 4.8 0.00 0.00 0.00 70 1012.4
20260905200018 28 264 3.2 4.8 0.00 0.00 0.00 67 1012.6
20260905195038 30 265 3.2 3.2 0.00 0.00 0.00 65 1012.2
20260905194018 32 347 0.0 4.8 0.00 0.00 0.00 62 1011.6
20260905193018 34 48 8.0 12.9 0.00 0.00 0.00 53 1011.0
20260905192019 34 41 8.0 11.3 0.00 0.00 0.00 50 1011.2
20260905191019 35 33 8.0 9.7 0.00 0.00 0.00 49 1011.1
20260905190019 35 14 6.4 8.0 0.00 0.00 0.00 47 1011.1
20260905185019 36 31 4.8 8.0 0.00 0.00 0.00 45 1011.4
20260905184016 35 29 6.4 11.3 0.00 0.00 0.00 48 1011.4
20260905183019 36 26 6.4 12.9 0.00 0.00 0.00 46 1011.5
20260905182039 36 28 4.8 11.3 0.00 0.00 0.00 46 1011.7
20260905181019 36 38 4.8 6.4 0.00 0.00 0.00 49 1012.0
20260905180017 36 25 4.8 11.3 0.00 0.00 0.00 50 1012.2
20260905175017 35 35 4.8 8.0 0.00 0.00 0.00 52 1012.5
20260905174020 34 42 6.4 11.3 0.00 0.00 0.00 56 1012.8
20260905173020 35 35 6.4 9.7 0.00 0.00 0.00 53 1012.8
20260905172018 35 46 4.8 12.9 0.00 0.00 0.00 54 1013.0
20260905171018 35 34 6.4 9.7 0.00 0.00 0.00 54 1013.1
20260905170017 35 55 4.8 9.7 0.00 0.00 0.00 55 1013.4
20260905165018 33 40 4.8 9.7 0.00 0.00 0.00 58 1013.5
20260905164018 33 106 3.2 8.0 0.00 0.00 0.00 59 1013.6
20260905163018 33 62 4.8 12.9 0.00 0.00 0.00 60 1013.8
20260905162019 33 54 4.8 14.5 0.00 0.00 0.00 60 1013.9
20260905161038 33 39 8.0 12.9 0.00 0.00 0.00 63 1014.0
20260905160019 32 39 8.0 12.9 0.00 0.00 0.00 65 1014.1
20260905155019 32 210 4.8 16.1 0.00 0.00 0.00 67 1014.1
20260905154039 31 54 6.4 14.5 0.00 0.00 0.00 70 1014.3
20260905153019 31 298 8.0 12.9 0.00 0.00 0.00 71 1014.3
20260905152019 31 235 4.8 9.7 0.00 0.00 0.00 72 1014.3
20260905151020 30 210 3.2 6.4 0.00 0.00 0.00 75 1014.3
20260905150019 29 234 1.6 4.8 0.00 0.00 0.00 76 1014.3
20260905145019 28 185 0.0 3.2 0.00 0.00 0.00 79 1014.4
20260905144020 28 183 0.0 1.6 0.00 0.00 0.00 79 1014.4
20260905143020 28 216 1.6 4.8 0.00 0.00 0.00 80 1014.5
20260905142020 27 221 3.2 6.4 0.00 0.00 0.00 81 1014.5
20260905141020 27 242 0.0 3.2 0.00 0.00 0.00 83 1014.5
20260905140020 27 228 1.6 6.4 0.00 0.00 0.00 84 1014.5
20260905135021 26 220 3.2 6.4 0.00 0.00 0.00 85 1014.6
20260905134041 26 213 0.0 6.4 0.00 0.00 0.00 86 1014.7
20260905133021 26 0.0 0.0 0.00 0.00 0.00 87 1014.7
20260905132021 26 0.0 0.0 0.00 0.00 0.00 87 1014.8
20260905131021 25 200 1.6 3.2 0.00 0.00 0.00 87 1014.8
20260905130101 25 182 0.0 6.4 0.00 0.00 0.00 88 1014.9
20260905125022 25 196 1.6 3.2 0.00 0.00 0.00 89 1015.0
20260905124021 25 0.0 0.0 0.00 0.00 0.00 90 1014.9
20260905123022 25 0.0 0.0 0.00 0.00 0.00 90 1014.8
20260905122042 24 198 0.0 3.2 0.00 0.00 0.00 91 1014.8
20260905121022 24 0.0 0.0 0.00 0.00 0.00 92 1014.8
20260905120022 24 0.0 0.0 0.00 0.00 0.00 92 1014.8
20260905115022 23 0.0 0.0 0.00 0.00 0.00 93 1014.7
20260905114022 23 0.0 0.0 0.00 0.00 0.00 94 1014.7
20260905113023 23 0.0 0.0 0.00 0.00 0.00 94 1014.6
20260905112023 23 220 0.0 3.2 0.00 0.00 0.00 94 1014.4
20260905111023 23 0.0 0.0 0.00 0.00 0.00 94 1014.1
20260905110023 23 0.0 0.0 0.00 0.00 0.00 94 1013.9
20260905105023 23 0.0 0.0 0.00 0.00 0.00 94 1013.8
20260905104024 23 0.0 0.0 0.00 0.00 0.00 93 1013.8
20260905103024 24 0.0 0.0 0.00 0.00 0.00 92 1013.6
20260905102024 24 0.0 0.0 0.00 0.00 0.00 92 1013.5
20260905101024 24 0.0 0.0 0.00 0.00 0.00 91 1013.3
20260905100024 24 0.0 0.0 0.00 0.00 0.00 90 1013.2
20260905095024 25 0.0 0.0 0.00 0.00 0.00 90 1013.3
20260905094024 25 0.0 0.0 0.00 0.00 0.00 89 1013.2
20260905093045 25 227 0.0 3.2 0.00 0.00 0.00 89 1013.2
20260905092025 25 0.0 0.0 0.00 0.00 0.00 89 1013.3
20260905091025 25 0.0 0.0 0.00 0.00 0.00 89 1013.3
20260905090045 25 0.0 0.0 0.00 0.00 0.00 89 1013.5
20260905085025 25 0.0 0.0 0.00 0.00 0.00 89 1013.5
20260905084045 25 0.0 0.0 0.00 0.00 0.00 88 1013.6
20260905083026 25 0.0 0.0 0.00 0.00 0.00 87 1013.8
20260905082046 25 0.0 0.0 0.00 0.00 0.00 88 1013.8
20260905081026 25 0.0 0.0 0.00 0.00 0.00 87 1013.9
20260905080046 25 0.0 0.0 0.00 0.00 0.00 87 1014.1
20260905075026 25 0.0 0.0 0.00 0.00 0.00 87 1014.1
20260905074027 25 0.0 0.0 0.00 0.00 0.00 88 1014.0
20260905073027 25 0.0 0.0 0.00 0.00 0.00 88 1014.0